KE9LZ Weather Reports


time (UTC)temp
C
wind
direction
speed
KPH
gust
KPH
rain 1hr
cm
rain 24hr
cm
rain mn
cm
humidity
%
barometer
mb
20260505180003 12 234 12.9 25.7 0.00 0.00 0.00 34 1012.3
20260505175003 11 232 14.5 38.6 0.00 0.00 0.00 34 1012.4
20260505174003 11 264 16.1 33.8 0.00 0.00 0.00 36 1012.3
20260505172003 11 262 14.5 35.4 0.00 0.00 0.00 40 1012.4
20260505171003 10 290 19.3 33.8 0.00 0.00 0.00 38 1012.1
20260505170003 10 223 8.0 24.1 0.00 0.00 0.00 43 1012.0
20260505165002 10 269 14.5 37.0 0.00 0.00 0.00 44 1011.9
20260505164003 10 286 11.3 32.2 0.00 0.00 0.00 43 1011.9
20260505163003 10 242 9.7 37.0 0.00 0.00 0.00 44 1012.0
20260505162002 10 220 9.7 40.2 0.00 0.00 0.00 44 1012.0
20260505161003 10 292 16.1 33.8 0.00 0.00 0.00 45 1011.8
20260505153003 9 284 14.5 32.2 0.00 0.00 0.00 46 1011.8
20260505152002 10 266 14.5 33.8 0.00 0.00 0.00 46 1012.0
20260505151003 9 318 9.7 37.0 0.00 0.00 0.00 46 1012.1
20260505125003 7 216 8.0 20.9 0.00 0.00 0.00 53 1011.8
20260505124003 7 254 4.8 24.1 0.00 0.00 0.00 53 1011.3
20260505123003 7 247 4.8 19.3 0.00 0.00 0.00 53 1011.1
20260505122003 7 217 8.0 16.1 0.00 0.00 0.00 53 1011.0
20260505121003 6 281 4.8 14.5 0.00 0.00 0.00 54 1011.1
20260505115003 6 264 4.8 16.1 0.00 0.00 0.00 57 1010.8
20260505113003 5 336 4.8 11.3 0.00 0.00 0.00 59 1010.8
20260505112003 5 136 1.6 8.0 0.00 0.00 0.00 60 1010.6
20260505111003 4 110 4.8 8.0 0.00 0.00 0.00 61 1010.5
20260505102004 5 182 3.2 4.8 0.00 0.00 0.00 59 1009.9
20260505101003 5 178 1.6 8.0 0.00 0.00 0.00 57 1009.7
20260505100003 5 166 3.2 8.0 0.00 0.00 0.00 55 1009.6
20260505095003 5 153 3.2 8.0 0.00 0.00 0.00 55 1009.8
20260505094003 5 148 1.6 4.8 0.00 0.00 0.00 56 1009.4
20260505093003 5 140 1.6 4.8 0.00 0.00 0.00 55 1009.3
20260505092003 5 145 3.2 4.8 0.00 0.00 0.00 53 1009.1
20260505090003 5 157 3.2 4.8 0.00 0.00 0.00 51 1008.7
20260505085003 6 150 1.6 4.8 0.00 0.00 0.00 49 1008.4
20260505084004 6 317 3.2 8.0 0.00 0.00 0.00 48 1008.1
20260505082003 6 36 3.2 11.3 0.00 0.00 0.00 48 1008.3
20260505080003 7 296 9.7 25.7 0.00 0.00 0.00 44 1008.1
20260505075003 7 293 11.3 33.8 0.00 0.00 0.00 44 1008.0
20260505073003 7 296 19.3 35.4 0.00 0.00 0.00 42 1008.0
20260505072003 7 286 14.5 29.0 0.00 0.00 0.00 43 1007.6
20260505071003 7 294 16.1 41.8 0.00 0.00 0.00 42 1007.9
20260505070003 8 314 14.5 35.4 0.00 0.00 0.00 46 1007.8
20260505065003 8 324 17.7 33.8 0.00 0.00 0.00 46 1007.4
20260505064003 8 308 16.1 29.0 0.00 0.00 0.00 47 1007.4
20260505062003 9 301 20.9 33.8 0.00 0.00 0.00 47 1007.2
20260505061003 9 301 20.9 48.3 0.00 0.00 0.00 47 1006.9
20260505060003 10 300 16.1 40.2 0.00 0.00 0.00 48 1006.9
20260505055003 10 308 11.3 33.8 0.00 0.00 0.00 47 1006.7
20260505054003 10 310 11.3 29.0 0.00 0.00 0.00 48 1006.4
20260505052002 11 318 19.3 35.4 0.00 0.00 0.00 47 1006.1
20260505051003 11 308 14.5 38.6 0.00 0.00 0.00 46 1006.0
20260505041003 13 350 8.0 25.7 0.00 0.00 0.00 43 1004.6
20260505040003 13 312 16.1 29.0 0.00 0.00 0.00 41 1004.4
20260505035003 13 297 14.5 25.7 0.00 0.00 0.00 40 1003.9
20260505034003 13 302 9.7 25.7 0.00 0.00 0.00 41 1003.5
20260505033003 13 307 14.5 27.4 0.00 0.00 0.00 40 1003.3
20260505031004 14 304 14.5 33.8 0.00 0.00 0.00 41 1002.5
20260505030004 14 298 20.9 48.3 0.00 0.00 0.00 41 1002.5
20260505025004 15 303 20.9 41.8 0.00 0.00 0.00 38 1002.2
20260505023003 15 301 22.5 45.1 0.00 0.00 0.00 36 1002.0
20260505022003 15 293 11.3 40.2 0.00 0.00 0.00 37 1001.9
20260505021004 16 286 20.9 46.7 0.00 0.00 0.00 35 1001.4
20260505020003 16 303 8.0 32.2 0.00 0.00 0.00 37 1001.1
20260505015003 16 297 24.1 33.8 0.00 0.00 0.00 36 1000.8
20260505014003 17 299 14.5 38.6 0.00 0.00 0.00 38 1000.8
20260505013003 17 254 8.0 29.0 0.00 0.00 0.00 37 1000.5
20260505012003 17 282 16.1 46.7 0.00 0.00 0.00 35 1000.3
20260505011003 17 288 16.1 27.4 0.00 0.00 0.00 35 1000.2
20260505005004 18 290 16.1 37.0 0.00 0.00 0.00 34 999.9
20260505004004 18 284 19.3 37.0 0.00 0.00 0.00 34 1000.0
20260505003004 18 293 11.3 37.0 0.00 0.00 0.00 34 999.9
20260505001003 18 283 20.9 37.0 0.00 0.00 0.00 33 999.4
20260505000003 19 280 20.9 29.0 0.00 0.00 0.00 33 999.1
20260504235003 20 295 20.9 29.0 0.00 0.00 0.00 32 998.8
20260504234003 20 292 14.5 37.0 0.00 0.00 0.00 33 999.1
20260504233003 20 285 9.7 48.3 0.00 0.00 0.00 33 998.9
20260504231003 20 270 16.1 25.7 0.00 0.00 0.00 32 998.7
20260504230003 20 268 14.5 46.7 0.00 0.00 0.00 32 998.8
20260504225003 20 288 19.3 38.6 0.00 0.00 0.00 33 998.8
20260504224003 21 295 27.4 51.5 0.00 0.00 0.00 32 998.8
20260504223003 21 294 17.7 41.8 0.00 0.00 0.00 34 998.7
20260504222003 21 300 27.4 49.9 0.00 0.00 0.00 33 998.7
20260504221003 22 303 24.1 35.4 0.00 0.00 0.00 34 998.2
20260504220003 22 269 17.7 37.0 0.00 0.00 0.00 33 998.1
20260504215004 22 300 22.5 45.1 0.00 0.00 0.00 34 997.8
20260504214003 23 287 14.5 33.8 0.00 0.00 0.00 35 997.7
20260504213003 23 275 22.5 35.4 0.00 0.00 0.00 34 997.4
20260504212003 24 283 14.5 51.5 0.00 0.00 0.00 32 997.4
20260504211004 24 272 27.4 45.1 0.00 0.00 0.00 32 997.6
20260504210003 24 279 27.4 56.3 0.00 0.00 0.00 32 997.7
20260504205002 25 265 22.5 41.8 0.00 0.00 0.00 32 997.3
20260504203004 25 262 17.7 41.8 0.00 0.00 0.00 32 997.4
20260504202003 25 266 20.9 53.1 0.00 0.00 0.00 34 997.6
20260504201003 25 276 25.7 40.2 0.00 0.00 0.00 33 997.7
20260504200003 25 241 8.0 37.0 0.00 0.00 0.00 36 997.6
20260504194003 24 256 22.5 35.4 0.00 0.00 0.00 34 997.8
20260504193003 24 260 19.3 51.5 0.00 0.00 0.00 35 998.0
20260504192003 24 253 20.9 37.0 0.00 0.00 0.00 35 998.1
20260504191003 25 279 17.7 32.2 0.00 0.00 0.00 34 997.9
20260504190003 25 253 19.3 35.4 0.00 0.00 0.00 34 998.0
20260504185003 24 242 19.3 35.4 0.00 0.00 0.00 34 997.9
20260504184003 24 293 14.5 37.0 0.00 0.00 0.00 35 998.1
20260504183003 24 256 20.9 37.0 0.00 0.00 0.00 34 998.0
20260504182004 24 232 16.1 35.4 0.00 0.00 0.00 35 998.0
20260504181003 23 259 16.1 45.1 0.00 0.00 0.00 34 998.1